54,2013-07-17 19:27:07,1374089227,55.23692,-10.11362,3,2,2013-07-17 19:26:00,1374089160,20.29,1,15.8,0,4095,55.202,-10.0748,42,48
55,2013-07-17 20:06:08,1374091568,55.18217,-10.16442,2,2,2013-07-17 20:00:00,1374091200,19.8,1,15.8,30,4095,55.202,-10.0748,42,48
56,2013-07-17 21:06:10,1374095170,55.18737,-10.10259,2,2,2013-07-17 21:00:00,1374094800,15.02,11,15.8,30,0,55.1792,-10.0802,36,48
57,2013-07-17 22:06:08,1374098768,55.18737,-10.10259,3,3,2013-07-17 22:00:00,1374098400,15.04,10,15.8,30,60,55.1792,-10.0802,36,48
58,2013-07-17 23:06:08,1374102368,55.16348,-10.02979,3,1,2013-07-17 23:00:00,1374102000,15.02,13,15.8,30,120,55.1792,-10.0802,36,48
59,2013-07-18 00:06:13,1374105973,55.16348,-10.02979,2,6,2013-07-18 00:00:00,1374105600,15.01,12,15.8,30,0,55.181,-10.0348,34,48
60,2013-07-18 01:06:08,1374109568,55.21303,-10.04073,8,1,2013-07-18 01:00:00,1374109200,15.01,14,15.8,30,60,55.181,-10.0348,34,48
61,2013-07-18 02:06:11,1374113171,55.1686,-9.96798,2,1,2013-07-18 02:00:00,1374112800,15,10,15.8,30,120,55.181,-10.0348,34,48
62,2013-07-18 03:06:08,1374116768,55.15833,-10.09158,2,1,2013-07-18 03:00:00,1374116400,15,9,15.8,30,0,55.1718,-10.0314,64,44
63,2013-07-18 04:06:11,1374120371,55.15833,-10.09158,11,7,2013-07-18 04:00:00,1374120000,15.01,9,15.8,30,60,55.1718,-10.0314,64,44
64,2013-07-18 05:06:08,1374123968,55.16348,-10.02979,2,1,2013-07-18 05:00:00,1374123600,15.01,11,15.8,30,120,55.1718,-10.0314,64,44
65,2013-07-18 06:06:11,1374127571,55.19253,-10.04073,2,1,2013-07-18 06:00:00,1374127200,15.02,11,15.8,30,0,55.1824,-10.0502,34,48
66,2013-07-18 07:06:14,1374131174,55.18737,-10.10259,2,1,2013-07-18 07:00:00,1374130800,15.02,8,15.8,30,60,55.1824,-10.0502,34,48
67,2013-07-18 08:06:08,1374134768,55.16348,-10.02979,6,0,2013-07-18 08:00:00,1374134400,15.04,10,15.8,30,120,55.1824,-10.0502,34,48
68,2013-07-18 09:06:08,1374138368,55.16348,-10.02979,3,1,2013-07-18 09:00:00,1374138000,15.07,10,15.8,30,0,55.2024,-10.0418,34,48
69,2013-07-18 10:06:13,1374141973,55.17282,-12.78757,192,3,2013-07-18 10:00:00,1374141600,15.08,9,15.8,30,60,55.2024,-10.0418,34,48
70,2013-07-18 11:06:08,1374145568,55.21816,-9.97886,2,2,2013-07-18 11:00:00,1374145200,15.12,10,15.8,30,120,55.2024,-10.0418,34,48
71,2013-07-18 12:06:18,1374149178,55.24153,-10.75488,100,3,2013-07-18 12:00:00,1374148800,15.16,9,15.8,30,0,55.2108,-10.0086,64,48
72,2013-07-18 13:06:08,1374152768,55.19253,-10.04073,4,1,2013-07-18 13:00:00,1374152400,15.21,10,15.8,30,60,55.2108,-10.0086,64,48
73,2013-07-18 14:06:08,1374156368,55.23173,-10.17551,66,2,2013-07-18 14:00:00,1374156000,15.28,12,15.8,30,120,55.2108,-10.0086,64,48
74,2013-07-18 15:06:09,1374159969,55.1686,-9.96798,5,3,2013-07-18 15:00:00,1374159600,15.28,13,15.8,30,0,55.2054,-9.98839999999998,34,48
75,2013-07-18 16:06:09,1374163569,55.1686,-9.96798,3,8,2013-07-18 16:00:00,1374163200,15.47,9,15.8,30,60,55.2054,-9.98839999999998,34,48
76,2013-07-18 17:06:34,1374167194,55.24723,-9.98976,6,1,2013-07-18 17:00:00,1374166800,15.44,10,15.8,30,120,55.2054,-9.98839999999998,34,48
77,2013-07-18 18:06:07,1374170767,55.20787,-10.10259,4,2,2013-07-18 18:00:00,1374170400,15.4,8,15.8,35,0,55.2096,-9.99859999999998,34,48
78,2013-07-18 19:06:07,1374174367,55.24723,-9.98976,6,3,2013-07-18 19:00:00,1374174000,15.35,9,15.8,30,60,55.2096,-9.99859999999998,34,48
79,2013-07-18 20:06:07,1374177967,55.24723,-9.98976,13,3,2013-07-18 20:00:00,1374177600,15.3,11,15.8,30,120,55.2096,-9.99859999999998,34,48
80,2013-07-18 21:06:13,1374181573,55.24209,-10.0517,4,9,2013-07-18 21:00:00,1374181200,15.31,8,15.8,30,0,55.2198,-10.0096,34,48
81,2013-07-18 22:06:07,1374185167,55.21303,-10.04073,5,1,2013-07-18 22:00:00,1374184800,15.33,7,15.8,30,60,55.2198,-10.0096,34,48
82,2013-07-18 23:06:08,1374188768,55.25234,-9.92779,3,1,2013-07-18 23:00:00,1374188400,15.29,9,15.8,30,120,55.2198,-10.0096,34,48
83,2013-07-19 00:06:07,1374192367,55.21816,-9.97886,4,1,2013-07-19 00:00:00,1374192000,15.3,9,15.8,30,0,55.2356,-9.97919999999999,34,48
84,2013-07-19 01:06:07,1374195967,55.48648,-5.89963,267,1,2013-07-19 01:00:00,1374195600,15.29,9,15.8,30,60,55.2356,-9.97919999999999,34,48
85,2013-07-19 02:06:11,1374199571,55.21816,-9.97886,2,1,2013-07-19 02:00:00,1374199200,15.28,8,15.8,30,120,55.2356,-9.97919999999999,34,48
86,2013-07-19 03:06:07,1374203167,55.22326,-9.91696,11,1,2013-07-19 03:00:00,1374202800,15.28,9,15.8,30,0,55.2358,-9.95679999999999,14,48
87,2013-07-19 04:06:09,1374206769,55.25234,-9.92779,3,1,2013-07-19 04:00:00,1374206400,15.26,9,15.8,30,60,55.2358,-9.95679999999999,14,48
88,2013-07-19 05:06:09,1374210369,55.24723,-9.98976,4,1,2013-07-19 05:00:00,1374210000,15.24,11,15.8,30,120,55.2358,-9.95679999999999,14,48
89,2013-07-19 06:06:18,1374213978,55.22326,-9.91696,3,1,2013-07-19 06:00:00,1374213600,15.23,10,15.8,30,0,55.234,-9.96519999999998,54,48
90,2013-07-19 07:06:07,1374217567,55.21816,-9.97886,3,1,2013-07-19 07:00:00,1374217200,15.2,9,15.8,30,60,55.234,-9.96519999999998,54,48
91,2013-07-19 08:06:12,1374221172,55.2677,-9.98976,11,2,2013-07-19 08:00:00,1374220800,15.21,11,15.8,30,120,55.234,-9.96519999999998,54,48
92,2013-07-19 09:06:10,1374224770,55.22326,-9.91696,2,1,2013-07-19 09:00:00,1374224400,15.23,13,15.8,30,0,55.2406,-9.97879999999998,96,48
93,2013-07-19 10:06:07,1374228367,55.14867,-14.99616,325,9,2013-07-19 10:00:00,1374228000,15.24,10,15.8,30,60,55.2406,-9.97879999999998,96,48
94,2013-07-19 11:06:07,1374231967,55.21816,-9.97886,5,3,2013-07-19 11:00:00,1374231600,15.32,12,15.8,30,120,55.2406,-9.97879999999998,96,48
95,2013-07-19 12:06:06,1374235566,55.38479,-12.79587,191,3,2013-07-19 12:00:00,1374235200,15.39,10,15.8,30,0,55.2506,-9.96639999999999,90,48
96,2013-07-19 13:06:06,1374239166,55.24723,-9.98976,2,2,2013-07-19 13:00:00,1374238800,15.49,9,15.8,30,60,55.2506,-9.96639999999999,90,48
97,2013-07-19 14:06:06,1374242766,55.24723,-9.98976,3,2,2013-07-19 14:00:00,1374242400,15.57,11,15.8,30,120,55.2506,-9.96639999999999,90,48
98,2013-07-19 15:06:09,1374246369,55.22326,-9.91696,2,2,2013-07-19 15:00:00,1374246000,15.59,12,15.8,30,0,55.247,-9.95399999999998,36,48
99,2013-07-19 16:06:06,1374249966,55.20321,-9.15234,82,3,2013-07-19 16:00:00,1374249600,15.65,14,15.8,30,60,55.247,-9.95399999999998,36,48
100,2013-07-19 17:06:06,1374253566,55.24723,-9.98976,2,2,2013-07-19 17:00:00,1374253200,15.68,11,15.8,30,120,55.247,-9.95399999999998,36,48
101,2013-07-19 18:06:06,1374257166,55.23765,-8.96609,100,2,2013-07-19 18:00:00,1374256800,15.68,13,15.8,30,0,55.2486,-9.97319999999999,114,48
102,2013-07-19 19:06:06,1374260766,55.2677,-9.98976,3,2,2013-07-19 19:00:00,1374260400,15.68,13,15.8,30,60,55.2486,-9.97319999999999,114,48
103,2013-07-19 20:06:08,1374264368,55.21816,-9.97886,12,1,2013-07-19 20:00:00,1374264000,15.69,11,15.8,30,120,55.2486,-9.97319999999999,114,48
104,2013-07-19 21:06:06,1374267966,55.27281,-9.92779,2,2,2013-07-19 21:00:00,1374267600,15.7,11,15.8,30,0,55.2662,-9.97979999999998,122,48
105,2013-07-19 22:06:06,1374271566,55.24723,-9.98976,4,2,2013-07-19 22:00:00,1374271200,15.72,12,15.8,30,60,55.2662,-9.97979999999998,122,48
106,2013-07-19 23:06:06,1374275166,55.24723,-9.98976,9,1,2013-07-19 23:00:00,1374274800,15.7,11,15.8,30,120,55.2662,-9.97979999999998,122,48
107,2013-07-20 00:06:09,1374278769,55.25234,-9.92779,4,1,2013-07-20 00:00:00,1374278400,15.7,10,15.8,30,0,55.274,-9.95679999999999,84,48
108,2013-07-20 01:06:07,1374282367,55.4015,-7.60299,166,1,2013-07-20 01:00:00,1374282000,15.68,11,15.8,30,60,55.274,-9.95679999999999,84,48
109,2013-07-20 02:06:06,1374285966,55.25234,-9.92779,3,1,2013-07-20 02:00:00,1374285600,15.67,12,15.8,30,120,55.274,-9.95679999999999,84,48
110,2013-07-20 03:06:06,1374289566,55.3019,-9.93865,7,1,2013-07-20 03:00:00,1374289200,15.66,10,15.8,30,0,55.2742,-9.93019999999999,60,44
111,2013-07-20 04:06:06,1374293166,55.25234,-9.92779,2,1,2013-07-20 04:00:00,1374292800,15.64,12,15.8,30,60,55.2742,-9.93019999999999,60,44
112,2013-07-20 05:06:08,1374296768,55.62981,-4.39383,358,1,2013-07-20 05:00:00,1374296400,15.62,10,15.8,30,120,55.2742,-9.93019999999999,60,44
113,2013-07-20 06:06:06,1374300366,55.24723,-9.98976,2,1,2013-07-20 06:00:00,1374300000,15.6,10,15.8,30,0,55.2674,-9.9374,60,48
114,2013-07-20 07:06:06,1374303966,55.22832,-9.85504,15,1,2013-07-20 07:00:00,1374303600,15.61,9,15.8,30,60,55.2674,-9.9374,60,48
115,2013-07-20 08:06:06,1374307566,55.27281,-9.92779,2,0,2013-07-20 08:00:00,1374307200,15.7,12,15.6,30,120,55.2674,-9.9374,60,48
116,2013-07-20 09:06:15,1374311175,55.29679,-10.00068,2,19,2013-07-20 09:00:00,1374310800,15.72,9,15.6,30,0,55.2796,-9.96699999999998,36,44
117,2013-07-20 10:06:13,1374314773,55.24723,-9.98976,8,1,2013-07-20 10:00:00,1374314400,15.81,13,15.6,30,60,55.2796,-9.96699999999998,36,44
118,2013-07-20 11:06:09,1374318369,55.29679,-10.00068,1,2,2013-07-20 11:00:00,1374318000,16.04,10,15.6,30,120,55.2796,-9.96699999999998,36,44
119,2013-07-20 12:06:15,1374321975,55.29679,-10.00068,11,2,2013-07-20 12:00:00,1374321600,16.39,10,15.6,30,0,55.2908,-9.94659999999999,34,44
120,2013-07-20 13:06:11,1374325571,55.3019,-9.93865,6,3,2013-07-20 13:00:00,1374325200,16.29,9,15.6,30,60,55.2908,-9.94659999999999,34,44
121,2013-07-20 14:06:08,1374329168,55.49611,-14.32794,10,2,2013-07-20 14:00:00,1374328800,16.46,13,15.6,30,120,55.2908,-9.94659999999999,34,44
122,2013-07-20 15:06:12,1374332772,55.30698,-9.8766,3,2,2013-07-20 15:00:00,1374332400,16.7,10,15.6,30,0,55.2886,-9.91559999999998,34,44
123,2013-07-20 16:06:11,1374336371,55.3764,-11.37182,114,5,2013-07-20 16:00:00,1374336000,16.86,11,15.6,30,60,55.2886,-9.91559999999998,34,44
124,2013-07-20 17:06:09,1374339969,55.3019,-9.93865,2,7,2013-07-20 17:00:00,1374339600,16.92,8,15.6,30,120,55.2886,-9.91559999999998,34,44
125,2013-07-20 18:06:11,1374343571,55.22371,-9.15234,163,2,2013-07-20 18:00:00,1374343200,16.99,10,15.6,30,0,55.2824,-9.91639999999998,34,48
126,2013-07-20 19:06:08,1374347168,55.25234,-9.92779,5,2,2013-07-20 19:00:00,1374346800,17.06,11,15.6,30,60,55.2824,-9.91639999999998,34,48
127,2013-07-20 20:06:09,1374350769,55.24425,-8.45923,115,1,2013-07-20 20:00:00,1374350400,16.98,9,15.6,30,120,55.2824,-9.91639999999998,34,48
128,2013-07-20 21:06:14,1374354374,55.29679,-10.00068,2,5,2013-07-20 21:00:00,1374354000,16.87,9,15.6,30,0,55.2924,-9.95339999999999,14,44
129,2013-07-20 22:06:08,1374357968,55.29679,-10.00068,3,1,2013-07-20 22:00:00,1374357600,16.92,11,15.6,30,60,55.2924,-9.95339999999999,14,44
130,2013-07-20 23:06:10,1374361570,55.27281,-9.92779,2,13,2013-07-20 23:00:00,1374361200,16.91,9,15.6,30,120,55.2924,-9.95339999999999,14,44
131,2013-07-21 00:06:13,1374365173,55.27281,-9.92779,2,6,2013-07-21 00:00:00,1374364800,16.85,8,15.6,30,0,55.3104,-9.9204,34,48
132,2013-07-21 01:06:11,1374368771,55.35654,-9.88742,23,1,2013-07-21 01:00:00,1374368400,16.78,9,15.6,30,60,55.3104,-9.9204,34,48
133,2013-07-21 02:06:08,1374372368,55.30698,-9.8766,2,1,2013-07-21 02:00:00,1374372000,16.61,9,15.6,30,120,55.3104,-9.9204,34,48
134,2013-07-21 03:06:06,1374375966,55.44108,-7.28968,178,2,2013-07-21 03:00:00,1374375600,16.37,8,15.6,30,0,55.3138,-9.87179999999998,14,48
135,2013-07-21 04:06:08,1374379568,55.30698,-9.8766,2,1,2013-07-21 04:00:00,1374379200,16.3,9,15.6,30,60,55.3138,-9.87179999999998,14,48
136,2013-07-21 05:06:09,1374383169,55.31204,-9.81452,3,0,2013-07-21 05:00:00,1374382800,16.24,9,15.6,30,120,55.3138,-9.87179999999998,14,48
137,2013-07-21 06:06:08,1374386768,55.31204,-9.81452,2,1,2013-07-21 06:00:00,1374386400,16.22,12,15.6,30,0,55.3,-9.8528,34,48
138,2013-07-21 07:06:11,1374390371,55.3019,-9.93865,3,5,2013-07-21 07:00:00,1374390000,16.23,10,15.6,30,60,55.3,-9.8528,34,48
139,2013-07-21 08:06:10,1374393970,55.27788,-9.86581,4,1,2013-07-21 08:00:00,1374393600,16.28,9,15.6,30,120,55.3,-9.8528,34,48
140,2013-07-21 09:06:14,1374397574,55.27281,-9.92779,4,5,2013-07-21 09:00:00,1374397200,16.42,10,15.6,30,0,55.2984,-9.89059999999998,62,48
141,2013-07-21 10:06:08,1374401168,55.32743,-9.8766,6,0,2013-07-21 10:00:00,1374400800,16.58,9,15.6,30,60,55.2984,-9.89059999999998,62,48
142,2013-07-21 11:06:10,1374404770,55.30698,-9.8766,2,3,2013-07-21 11:00:00,1374404400,16.63,7,15.6,30,120,55.2984,-9.89059999999998,62,48
143,2013-07-21 12:06:12,1374408372,55.35145,-9.94954,4,2,2013-07-21 12:00:00,1374408000,16.75,8,15.6,30,0,55.3174,-9.9128,52,48
144,2013-07-21 13:06:07,1374411967,55.3019,-9.93865,4,2,2013-07-21 13:00:00,1374411600,16.74,9,15.6,30,60,55.3174,-9.9128,52,48
145,2013-07-21 14:06:12,1374415572,55.33248,-9.81452,3,2,2013-07-21 14:00:00,1374415200,16.98,9,15.6,30,120,55.3174,-9.9128,52,48
146,2013-07-21 15:06:19,1374419179,55.35654,-9.88742,2,2,2013-07-21 15:00:00,1374418800,16.99,11,15.6,30,0,55.3386,-9.87359999999998,112,44
147,2013-07-21 16:06:09,1374422769,55.53943,-14.22077,290,2,2013-07-21 16:00:00,1374422400,16.81,13,15.6,30,60,55.3386,-9.87359999999998,112,44
148,2013-07-21 17:06:15,1374426375,55.3616,-9.82528,9,2,2013-07-21 17:00:00,1374426000,16.72,13,15.6,30,120,55.3386,-9.87359999999998,112,44
149,2013-07-21 18:06:12,1374429972,55.35146,-10.65452,84,3,2013-07-21 18:00:00,1374429600,16.71,10,15.6,30,0,55.33,-9.84179999999998,38,40
150,2013-07-21 19:06:08,1374433568,55.3616,-9.82528,5,1,2013-07-21 19:00:00,1374433200,16.75,13,15.6,30,60,55.33,-9.84179999999998,38,40
151,2013-07-21 20:06:07,1374437167,55.36951,-10.7902,110,2,2013-07-21 20:00:00,1374436800,16.79,9,15.6,30,120,55.33,-9.84179999999998,38,40
152,2013-07-21 21:06:10,1374440770,55.35654,-9.88742,4,2,2013-07-21 21:00:00,1374440400,16.8,10,15.6,30,0,55.3238,-9.8792,34,48
153,2013-07-21 22:06:07,1374444367,55.3019,-9.93865,14,1,2013-07-21 22:00:00,1374444000,16.97,12,15.6,30,60,55.3238,-9.8792,34,48
154,2013-07-21 23:06:07,1374447967,55.35654,-9.88742,3,2,2013-07-21 23:00:00,1374447600,16.79,10,15.6,30,120,55.3238,-9.8792,34,48
155,2013-07-22 00:06:07,1374451567,55.35654,-9.88742,2,1,2013-07-22 00:00:00,1374451200,16.67,10,15.6,30,0,55.3488,-9.9134,64,48
156,2013-07-22 01:06:07,1374455167,55.36508,-10.14685,67,1,2013-07-22 01:00:00,1374454800,16.63,9,15.6,30,60,55.3488,-9.9134,64,48
157,2013-07-22 02:06:07,1374458767,55.35145,-9.94954,2,1,2013-07-22 02:00:00,1374458400,16.6,10,15.6,30,120,55.3488,-9.9134,64,48
158,2013-07-22 03:06:08,1374462368,55.39112,-8.93326,123,1,2013-07-22 03:00:00,1374462000,16.59,9,15.6,30,0,55.3756,-9.87019999999998,6,44
159,2013-07-22 04:06:07,1374465967,55.3616,-9.82528,2,1,2013-07-22 04:00:00,1374465600,16.51,11,15.6,30,60,55.3756,-9.87019999999998,6,44
160,2013-07-22 05:06:09,1374469569,55.38567,-9.89826,7,1,2013-07-22 05:00:00,1374469200,16.46,10,15.6,30,120,55.3756,-9.87019999999998,6,44
161,2013-07-22 06:06:11,1374473171,55.35654,-9.88742,4,1,2013-07-22 06:00:00,1374472800,16.37,8,15.6,30,0,55.3668,-9.82219999999998,60,48
162,2013-07-22 07:06:08,1374476768,55.35654,-9.88742,5,0,2013-07-22 07:00:00,1374476400,16.2,10,15.6,30,60,55.3668,-9.82219999999998,60,48
163,2013-07-22 08:06:07,1374480367,55.3616,-9.82528,6,1,2013-07-22 08:00:00,1374480000,16.36,11,15.6,30,120,55.3668,-9.82219999999998,60,48
164,2013-07-22 09:06:10,1374483970,55.32743,-9.8766,4,1,2013-07-22 09:00:00,1374483600,16.46,10,15.6,30,0,55.349,-9.846,84,48
165,2013-07-22 10:06:06,1374487566,55.33248,-9.81452,1,1,2013-07-22 10:00:00,1374487200,16.64,13,15.6,30,60,55.349,-9.846,84,48
166,2013-07-22 11:06:09,1374491169,55.32743,-9.8766,7,3,2013-07-22 11:00:00,1374490800,16.76,11,15.6,30,120,55.349,-9.846,84,48
167,2013-07-22 12:06:06,1374494766,55.3616,-9.82528,2,2,2013-07-22 12:00:00,1374494400,16.94,10,15.6,30,0,55.355,-9.899,60,48
168,2013-07-22 13:06:06,1374498366,55.35145,-9.94954,1,2,2013-07-22 13:00:00,1374498000,16.9,9,15.6,30,60,55.355,-9.899,60,48
169,2013-07-22 14:06:12,1374501972,55.35145,-9.94954,3,4,2013-07-22 14:00:00,1374501600,16.83,9,15.6,30,120,55.355,-9.899,60,48
169,2013-07-22 14:06:41,1374502001,55.35145,-9.94954,3,3,2013-07-22 14:00:00,1374501600,16.83,9,15.6,30,120,55.355,-9.899,60,48
170,2013-07-22 15:06:10,1374505570,55.3616,-9.82528,2,7,2013-07-22 15:00:00,1374505200,16.89,9,15.6,44,0,55.3838,-9.8836,36,48
171,2013-07-22 16:06:06,1374509166,55.60101,-13.32778,230,3,2013-07-22 16:00:00,1374508800,16.9,9,15.6,30,60,55.3838,-9.8836,36,48
172,2013-07-22 17:06:06,1374512766,55.35654,-9.88742,2,2,2013-07-22 17:00:00,1374512400,16.83,9,15.6,30,120,55.3838,-9.8836,36,48
173,2013-07-22 18:06:08,1374516368,55.53655,-13.17518,221,2,2013-07-22 18:00:00,1374516000,16.89,12,15.6,30,0,55.3878,-9.8306,66,48
174,2013-07-22 19:06:07,1374519967,55.41114,-9.83605,3,3,2013-07-22 19:00:00,1374519600,16.85,8,15.6,30,60,55.3878,-9.8306,66,48
175,2013-07-22 20:06:05,1374523565,55.3784,-10.34436,199,3,2013-07-22 20:00:00,1374523200,16.68,11,15.6,30,120,55.3878,-9.8306,66,48
176,2013-07-22 21:06:09,1374527169,55.35654,-9.88742,3,2,2013-07-22 21:00:00,1374526800,16.56,9,15.6,30,0,55.374,-9.8398,10,44
177,2013-07-22 22:06:09,1374530769,55.3616,-9.82528,4,4,2013-07-22 22:00:00,1374530400,16.65,11,15.6,30,60,55.374,-9.8398,10,44
178,2013-07-22 23:06:09,1374534369,55.35654,-9.88742,6,2,2013-07-22 23:00:00,1374534000,16.61,9,15.6,30,120,55.374,-9.8398,10,44
179,2013-07-23 00:06:10,1374537970,55.35654,-9.88742,4,1,2013-07-23 00:00:00,1374537600,16.43,9,15.6,30,0,55.3808,-9.88039999999998,32,48
180,2013-07-23 01:06:13,1374541573,55.28548,-11.7914,141,1,2013-07-23 01:00:00,1374541200,16.53,8,15.6,30,60,55.3808,-9.88039999999998,32,48
181,2013-07-23 02:06:09,1374545169,55.35654,-9.88742,3,2,2013-07-23 02:00:00,1374544800,16.39,7,15.6,30,120,55.3808,-9.88039999999998,32,48
182,2013-07-23 03:06:12,1374548772,55.46994,-8.9529,100,2,2013-07-23 03:00:00,1374548400,16.38,9,15.6,30,0,55.4048,-9.86779999999999,10,48
183,2013-07-23 04:06:13,1374552373,55.41114,-9.83605,2,4,2013-07-23 04:00:00,1374552000,16.42,7,15.6,30,60,55.4048,-9.86779999999999,10,48
184,2013-07-23 05:06:22,1374555982,55.44294,-8.6308,102,1,2013-07-23 05:00:00,1374555600,16.4,7,15.6,30,120,55.4048,-9.86779999999999,10,48
185,2013-07-23 06:06:10,1374559570,55.41114,-9.83605,2,2,2013-07-23 06:00:00,1374559200,16.5,6,15.6,30,0,55.4108,-9.81059999999999,34,48
186,2013-07-23 07:06:11,1374563171,55.49701,-7.68249,172,1,2013-07-23 07:00:00,1374562800,16.56,7,15.6,30,60,55.4108,-9.81059999999999,34,48
187,2013-07-23 08:06:09,1374566769,55.41618,-9.77382,1,1,2013-07-23 08:00:00,1374566400,16.61,7,15.6,30,120,55.4108,-9.81059999999999,34,48
188,2013-07-23 09:06:11,1374570371,55.63054,-5.60306,275,1,2013-07-23 09:00:00,1374570000,16.7,8,15.6,30,0,55.3994,-9.8038,34,48
189,2013-07-23 10:06:11,1374573971,55.3616,-9.82528,5,3,2013-07-23 10:00:00,1374573600,16.76,7,15.6,30,60,55.3994,-9.8038,34,48
190,2013-07-23 11:06:11,1374577571,55.40607,-9.89826,2,19,2013-07-23 11:00:00,1374577200,16.71,7,15.6,30,120,55.3994,-9.8038,34,48
191,2013-07-23 12:06:13,1374581173,55.41114,-9.83605,8,3,2013-07-23 12:00:00,1374580800,16.73,9,15.6,30,0,55.3902,-9.84039999999999,34,48
192,2013-07-23 13:06:21,1374584781,55.41114,-9.83605,8,2,2013-07-23 13:00:00,1374584400,16.72,9,15.6,30,60,55.3902,-9.84039999999999,34,48
193,2013-07-23 14:06:11,1374588371,55.3616,-9.82528,3,3,2013-07-23 14:00:00,1374588000,16.82,9,15.6,30,120,55.3902,-9.84039999999999,34,48
194,2013-07-23 15:06:08,1374591968,55.41618,-9.77382,4,3,2013-07-23 15:00:00,1374591600,16.61,9,15.6,30,0,55.4066,-9.84539999999998,34,44
195,2013-07-23 16:06:09,1374595569,55.41114,-9.83605,3,2,2013-07-23 16:00:00,1374595200,16.72,8,15.6,30,60,55.4066,-9.84539999999998,34,44
196,2013-07-23 17:06:10,1374599170,55.44029,-9.84685,2,14,2013-07-23 17:00:00,1374598800,16.92,8,15.6,30,120,55.4066,-9.84539999999998,34,44
197,2013-07-23 18:06:08,1374602768,55.65701,-13.28057,236,3,2013-07-23 18:00:00,1374602400,16.93,8,15.6,30,0,55.425,-9.80679999999998,34,48
198,2013-07-23 19:06:15,1374606375,55.41618,-9.77382,2,3,2013-07-23 19:00:00,1374606000,16.9,8,15.6,30,60,55.425,-9.80679999999998,34,48
199,2013-07-23 20:06:08,1374609968,55.5875,-12.60453,190,3,2013-07-23 20:00:00,1374609600,16.84,7,15.6,30,120,55.425,-9.80679999999998,34,48
200,2013-07-23 21:06:08,1374613568,55.41114,-9.83605,1,3,2013-07-23 21:00:00,1374613200,16.78,7,15.6,30,0,55.4196,-9.7852,16,44
201,2013-07-23 22:06:08,1374617168,55.50593,-12.31589,181,5,2013-07-23 22:00:00,1374616800,16.7,9,15.6,30,60,55.4196,-9.7852,16,44
202,2013-07-23 23:06:08,1374620768,55.38704,-9.76311,2,2,2013-07-23 23:00:00,1374620400,16.56,11,15.6,30,120,55.4196,-9.7852,16,44
203,2013-07-24 00:06:13,1374624373,55.3616,-9.82528,2,3,2013-07-24 00:00:00,1374624000,16.49,12,15.6,30,0,55.4054,-9.80619999999999,34,48
204,2013-07-24 01:06:09,1374627969,55.35654,-9.88742,3,1,2013-07-24 01:00:00,1374627600,16.47,11,15.6,30,60,55.4054,-9.80619999999999,34,48
205,2013-07-24 02:06:09,1374631569,55.41618,-9.77382,2,1,2013-07-24 02:00:00,1374631200,16.44,11,15.6,30,120,55.4054,-9.80619999999999,34,48
206,2013-07-24 03:06:12,1374635172,55.36467,-11.49552,126,6,2013-07-24 03:00:00,1374634800,16.29,8,15.6,30,0,55.4174,-9.8398,34,44
207,2013-07-24 04:06:11,1374638771,55.40607,-9.89826,2,1,2013-07-24 04:00:00,1374638400,16.3,9,15.6,30,60,55.4174,-9.8398,34,44
208,2013-07-24 05:06:08,1374642368,55.41618,-9.77382,3,1,2013-07-24 05:00:00,1374642000,16.29,10,15.6,30,120,55.4174,-9.8398,34,44
209,2013-07-24 06:06:08,1374645968,55.41618,-9.77382,2,1,2013-07-24 06:00:00,1374645600,16.24,10,15.6,30,0,55.4324,-9.80759999999998,52,48
210,2013-07-24 07:06:13,1374649573,55.48512,-8.31802,115,1,2013-07-24 07:00:00,1374649200,16.17,12,15.6,30,60,55.4324,-9.80759999999998,52,48
211,2013-07-24 08:06:08,1374653168,55.41114,-9.83605,3,1,2013-07-24 08:00:00,1374652800,16.06,11,15.6,30,120,55.4324,-9.80759999999998,52,48
212,2013-07-24 09:06:08,1374656768,55.41114,-9.83605,12,1,2013-07-24 09:00:00,1374656400,16.2,12,15.6,30,0,55.4222,-9.78459999999998,64,44
213,2013-07-24 10:06:07,1374660367,55.41618,-9.77382,4,1,2013-07-24 10:00:00,1374660000,16.23,14,15.6,30,60,55.4222,-9.78459999999998,64,44
214,2013-07-24 11:06:40,1374664000,55.41618,-9.77382,3,2,2013-07-24 11:00:00,1374663600,16.14,12,15.6,30,120,55.4222,-9.78459999999998,64,44
215,2013-07-24 12:06:16,1374667576,55.41114,-9.83605,4,3,2013-07-24 12:00:00,1374667200,16.17,12,15.6,42,0,55.4052,-9.81279999999998,64,48
216,2013-07-24 13:06:16,1374671176,55.3616,-9.82528,6,2,2013-07-24 13:00:00,1374670800,16.1,12,15.6,30,60,55.4052,-9.81279999999998,64,48
217,2013-07-24 14:06:09,1374674769,55.41114,-9.83605,2,2,2013-07-24 14:00:00,1374674400,16.06,17,15.6,30,120,55.4052,-9.81279999999998,64,48
218,2013-07-24 15:06:07,1374678367,55.43522,-9.90912,2,4,2013-07-24 15:00:00,1374678000,16.05,12,15.6,30,0,55.4142,-9.85579999999999,90,48
219,2013-07-24 16:06:29,1374681989,55.40607,-9.89826,14,7,2013-07-24 16:00:00,1374681600,16.11,14,15.6,30,60,55.4142,-9.85579999999999,90,48
220,2013-07-24 17:06:09,1374685569,55.41114,-9.83605,9,5,2013-07-24 17:00:00,1374685200,16.14,12,15.6,32,120,55.4142,-9.85579999999999,90,48
221,2013-07-24 18:06:07,1374689167,55.77064,-14.84099,326,3,2013-07-24 18:00:00,1374688800,16.17,9,15.6,30,0,55.441,-9.83459999999999,38,44
222,2013-07-24 19:06:07,1374692767,55.44029,-9.84685,2,3,2013-07-24 19:00:00,1374692400,16.21,9,15.6,30,60,55.441,-9.83459999999999,38,44
223,2013-07-24 20:06:09,1374696369,55.73509,-14.96428,337,2,2013-07-24 20:00:00,1374696000,16.21,10,15.6,30,120,55.441,-9.83459999999999,38,44
224,2013-07-24 21:06:10,1374699970,55.46571,-9.78456,5,7,2013-07-24 21:00:00,1374699600,16.2,10,15.6,30,0,55.4448,-9.78359999999998,36,44
225,2013-07-24 22:06:07,1374703567,55.41114,-9.83605,2,2,2013-07-24 22:00:00,1374703200,16.19,10,15.6,30,60,55.4448,-9.78359999999998,36,44
226,2013-07-24 23:06:10,1374707170,55.42118,-9.71157,3,8,2013-07-24 23:00:00,1374706800,16.15,11,15.6,30,120,55.4448,-9.78359999999998,36,44
227,2013-07-25 00:06:07,1374710767,55.41618,-9.77382,2,1,2013-07-25 00:00:00,1374710400,16.09,11,15.6,30,0,55.4248,-9.79239999999999,96,48
228,2013-07-25 01:06:07,1374714367,55.32112,-14.34223,296,1,2013-07-25 01:00:00,1374714000,16.07,14,15.6,30,60,55.4248,-9.79239999999999,96,48